Skip Page Navigation
NASA JPL Caltech
NASA Logo - Jet Propulsion Laboratory + View the NASA Portal
+ Near-Earth Object (NEO) Program
Search JPL
JPL Home Earth Solar System Stars & Galaxies Technology
JPL Solar System Dynamics
BODIES ORBITS EPHEMERIDES TOOLS PHYSICAL DATA DISCOVERY FAQ SITE MAP
JPL Small-Body Database Browser
Search: [ help ]  
7799 Martinsolc (1996 DW1)
Classification: Main-belt Asteroid          SPK-ID: 2007799
Ephemeris | Orbit Diagram | Orbital Elements | Physical Parameters | Discovery Circumstances | Close-Approach Data ]

[ show orbit diagram ]
Orbital Elements at Epoch 2457000.5 (2014-Dec-09.0) TDB
Reference: JPL 6 (heliocentric ecliptic J2000)
 Element Value Uncertainty (1-sigma)   Units 
e .03540321025500884 6.0678e-08  
a 2.26260130044344 1.4666e-08 AU
q 2.182497950880585 1.3412e-07 AU
i 3.74315357523804 5.6267e-06 deg
node 51.13373435382788 9.5039e-05 deg
peri 329.3763428190152 0.00012718 deg
M 293.9326740971047 8.6562e-05 deg
tp 2457228.636462811791
(2015-Jul-25.13646281)
0.00029933 JED
period 1243.112620192272
3.40
1.2087e-05
3.309e-08
d
yr
n .2895956441535595 2.8157e-09 deg/d
Q 2.342704650006295 1.5185e-08 AU
  Orbit Determination Parameters
   # obs. used (total)      1093  
   data-arc span      11885 days (32.54 yr)  
   first obs. used      1981-12-04  
   last obs. used      2014-06-19  
   planetary ephem.      DE431  
   SB-pert. ephem.      SB431-BIG16  
   condition code      0  
   fit RMS      .49124  
   data source      ORB  
   producer      Otto Matic  
   solution date      2014-Jul-14 12:17:59  

Additional Information
 Earth MOID = 1.1854 AU 
 T_jup = 3.615 
[ show covariance matrix ]

Ephemeris | Orbit Diagram | Orbital Elements | Physical Parameters | Discovery Circumstances | Close-Approach Data ]

Physical Parameter Table
Parameter Symbol Value Units Sigma Reference Notes
absolute magnitude H 13.8 mag n/a MPO263418  

7799 Martinšolc           Discovered 1996 Feb. 24 at Klet.
Named in honor of Martin Šolc (b. 1949), Czech astronomer and head of the Astronomical Institute of Charles University in Prague since 1987. His work deals with cosmic dust, dust in comets and isotopes. He participated in data evaluation from the Vega and Giotto missions to comet 1P/Halley in 1986-1987. At present he collaborates on the ISO project with the Institut für Kernphysik in Heidelberg. Much of his time is devoted to teaching. He is also working on a history of Czech astronomy, together with his wife Alena Šolcová (b. 1950). Name proposed by discoverers J. Ticha, M. Tichy and Z. Moravec.
NOTE: some special characters may not display properly (any characters within {} are an attempt to place the proper accent above a character)
Reference: 19990402/MPCPages.arcLast Updated: 2010-06-11

[ show close-approach data ]
Alternate Designations
 1996 DW1 = 1981 XH = 1991 RV27 
Ephemeris | Orbit Diagram | Orbital Elements | Physical Parameters | Discovery Circumstances | Close-Approach Data ]
ABOUT SSD CREDITS/AWARDS PRIVACY/COPYRIGHT GLOSSARY LINKS
FirstGov 2014-Dec-22 09:11 UT
(server date/time)  
NASA Home Page
Site Manager:   Donald K. Yeomans
Webmaster  Alan B. Chamberlin